[[{"header":{"parameterUnit":"m.s-1","parameterCategory":1,"la1":30.2991,"la2":30.254,"lo1":-89.0895,"lo2":-89.0444,"dx":0.0017,"dy":0.0017,"nx":28,"ny":28,"refTime":"2022-11-03T15:00:00:Z","depth":0,"parameterNumber":2,"parameterNumberName":"U-component_of_WINDS"},"data":[0,0,0,0,0,0,0,0,0,0,0,0,0,0,0,0,0,0,0,0,0,0,0,0,0,0,0,0,0,0,0,0,0,0,0,0,0,0,0,0,0,0,0,0,0,0,0,0,0,0,0,0,0,0,0,0,0,0,-1.9134,-1.9133,0,-1.908,-1.908,-1.9079,-1.9032,-1.9032,-1.9031,-1.9031,-1.8977,-1.8976,-1.8976,0,0,0,0,0,0,0,0,0,0,0,0,0,-1.9198,-1.9197,-1.9134,-1.9133,-1.9132,-1.9081,-1.908,-1.9079,-1.9032,-1.9032,-1.9031,-1.903,-1.8978,-1.8977,-1.8975,0,0,0,0,0,0,0,0,0,0,0,0,0,-1.916,-1.9197,-1.9134,-1.9103,-1.9099,-1.9081,-1.908,-1.9079,-1.9033,-1.9032,-1.9031,-1.903,-1.8978,-1.8977,-1.8975,-1.8983,0,0,-1.8971,-1.8971,0,0,0,0,0,0,0,0,-1.9163,-1.9158,-1.9108,-1.9105,-1.9101,-1.9062,-1.9083,-1.9047,-1.9033,-1.9058,-1.9031,-1.903,-1.9006,-1.9003,-1.8994,-1.8981,-1.8978,-1.8971,-1.897,-1.897,-1.8969,0,0,0,0,0,0,0,-1.9165,-1.916,-1.9113,-1.9107,-1.9103,-1.9093,-1.9086,-1.9076,-1.9037,-1.9056,-1.9052,-1.9046,-1.9004,-1.8996,-1.8993,-1.8978,-1.8971,-1.897,-1.8969,-1.8968,-1.8972,-1.8973,0,0,0,0,0,0,-1.9172,-1.9163,-1.9114,-1.9111,-1.913,-1.9092,-1.9085,-1.9076,-1.9037,-1.9031,-1.9047,-1.9044,-1.8999,-1.8994,-1.8991,-1.9,-1.897,-1.8968,-1.8968,-1.8971,-1.8973,-1.8974,0,0,0,0,0,0,-1.9174,-1.9168,-1.9116,-1.9136,-1.9128,-1.9092,-1.9082,-1.9075,-1.9066,-1.9031,-1.9024,-1.9045,-1.8998,-1.8993,-1.8986,-1.8998,-1.8968,-1.8966,-1.897,-1.8972,-1.8973,-1.9018,0,0,0,0,0,0,-1.9176,-1.9169,-1.9171,-1.9136,-1.9128,-1.9112,-1.9082,-1.9074,-1.9064,-1.906,-1.9027,-1.9021,-1.8997,-1.8989,-1.8985,-1.8995,-1.8965,-1.8969,-1.8971,-1.8973,-1.9015,-1.902,-1.9025,0,0,0,0,0,-1.9178,-1.9185,-1.9171,-1.9166,-1.9129,-1.9113,-1.9108,-1.9079,-1.9065,-1.9067,-1.9045,-1.9022,-1.8997,-1.8988,-1.8984,-1.8994,-1.8968,-1.897,-1.8973,-1.9013,-1.9019,-1.9025,0,0,0,0,0,0,-1.9221,-1.918,-1.9164,-1.9159,-1.914,-1.9105,-1.9106,-1.9086,-1.907,-1.9067,-1.9033,-1.9026,-1.9024,-1.9008,-1.8999,-1.9002,-1.898,-1.8981,-1.9012,-1.9018,-1.9023,-1.9027,-1.8964,0,0,0,0,0,-1.923,-1.922,-1.9184,-1.9184,-1.9175,-1.9143,-1.9134,-1.9114,-1.9093,-1.9084,-1.9062,-1.9043,-1.9031,-1.9023,-1.901,-1.9013,-1.9007,-1.9018,-1.9023,-1.9027,-1.9029,-1.9033,-1.9038,-1.898,-1.898,-1.898,0,0,-1.9248,-1.9224,-1.9219,-1.9192,-1.9174,-1.9166,-1.9136,-1.9127,-1.9121,-1.9083,-1.9076,-1.906,-1.9036,-1.9035,-1.9034,-1.9022,-1.9044,-1.903,-1.9033,-1.9033,-1.9035,-1.9041,-1.9046,-1.8982,-1.8982,-1.8981,0,0,-1.9277,-1.9257,-1.9256,-1.924,-1.9214,-1.9193,-1.9194,-1.9162,-1.915,-1.9142,-1.9115,-1.9108,-1.9087,-1.9073,-1.9062,-1.9091,-1.907,-1.9087,-1.9114,-1.9118,-1.9123,-1.9126,-1.9139,-1.9144,-1.9089,-1.9089,-1.9089,0,-1.9303,-1.9288,-1.9258,-1.9252,-1.9242,-1.9208,-1.9208,-1.9194,-1.9166,-1.916,-1.9147,-1.9123,-1.9105,-1.9102,-1.9109,-1.9101,-1.9102,-1.9091,-1.9124,-1.9128,-1.9131,-1.9143,-1.9147,-1.9092,-1.9091,-1.9091,-1.9091,0,-1.9322,-1.9313,-1.9315,-1.929,-1.928,-1.9277,-1.9248,-1.9242,-1.9224,-1.9205,-1.9201,-1.9178,-1.9161,-1.9159,-1.914,-1.9155,-1.9148,-1.913,-1.9108,-1.914,-1.915,-1.9154,-1.9095,-1.9094,-1.9094,-1.9093,0,0,-1.9374,-1.9335,-1.9337,-1.9326,-1.9298,-1.9291,-1.9288,-1.9272,-1.9269,-1.9251,-1.925,-1.9235,-1.9219,-1.9208,-1.9188,-1.9192,-1.9219,-1.9173,-1.9172,-1.9185,-1.9238,-1.9253,-1.9258,-1.9206,-1.9206,-1.9207,-1.924,0,-1.94,-1.9392,-1.9367,-1.9367,-1.936,-1.933,-1.9328,-1.9311,-1.9295,-1.9287,-1.9269,-1.926,-1.9239,-1.9232,-1.9234,-1.9215,-1.923,-1.9212,-1.9206,-1.9206,-1.9214,-1.9263,-1.9278,-1.931,-1.9244,-1.9245,-1.9245,0,-1.9428,-1.9414,-1.9415,-1.939,-1.9386,-1.9384,-1.937,-1.9363,-1.9345,-1.9332,-1.9322,-1.9301,-1.9298,-1.9277,-1.9275,-1.9264,-1.9261,-1.9251,-1.9252,-1.9251,-1.9228,-1.9266,-1.932,-1.9326,-1.9251,-1.925,-1.925,0,-1.9469,-1.945,-1.9449,-1.9441,-1.9411,-1.9412,-1.94,-1.9381,-1.9374,-1.9362,-1.9358,-1.9345,-1.9339,-1.9331,-1.9308,-1.9294,-1.931,-1.9286,-1.9302,-1.9302,-1.9306,-1.9307,-1.9363,-1.9302,-1.9301,-1.9301,-1.9301,0,-1.9501,-1.9503,-1.9468,-1.9467,-1.947,-1.9441,-1.9445,-1.943,-1.9414,-1.9412,-1.9385,-1.9383,-1.9352,-1.9348,-1.9329,-1.9333,-1.9329,-1.9321,-1.9317,-1.9324,-1.9326,-1.9322,-1.932,-1.9303,-1.9302,-1.9302,-1.9302,0,-1.9547,-1.9523,-1.952,-1.9494,-1.9487,-1.9491,-1.9468,-1.9468,-1.9451,-1.9448,-1.9446,-1.9419,-1.9413,-1.939,-1.9377,-1.9365,-1.9375,-1.9365,-1.9382,-1.9379,-1.9397,-1.9397,-1.9454,-1.9461,-1.9394,-1.9394,-1.9395,0,-1.9569,-1.957,-1.9545,-1.9542,-1.9531,-1.9525,-1.9519,-1.9493,-1.9488,-1.947,-1.9472,-1.9464,-1.9456,-1.9448,-1.9429,-1.9421,-1.9411,-1.9432,-1.941,-1.9419,-1.9415,-1.9416,-1.9417,-1.9437,-1.9438,-1.9439,-1.9439,0,-1.9612,-1.9602,-1.9593,-1.9583,-1.9577,-1.9567,-1.9555,-1.9554,-1.9525,-1.9521,-1.9515,-1.9509,-1.9499,-1.9492,-1.9481,-1.947,-1.9451,-1.9447,-1.945,-1.9459,-1.9469,-1.9467,-1.9397,-1.9445,-1.9445,-1.9444,-1.9444,-1.9444,-1.9648,-1.9649,-1.9633,-1.9626,-1.9615,-1.9606,-1.9606,-1.959,-1.9584,-1.9573,-1.9558,-1.9555,-1.9541,-1.9524,-1.9516,-1.9514,-1.9503,-1.9507,-1.9509,-1.9511,-1.9516,-1.9469,-1.9512,-1.9511,-1.9511,-1.9511,-1.9511,0,-1.9692,-1.9681,-1.9675,-1.9661,-1.9657,-1.9639,-1.9627,-1.9625,-1.9622,-1.961,-1.9604,-1.96,-1.9594,-1.9576,-1.9569,-1.9572,-1.9563,-1.9571,-1.9571,-1.957,-1.9525,-1.9524,-1.9578,-1.9578,-1.9578,-1.9578,-1.9578,-1.9578,-1.9714,-1.9717,-1.9705,-1.9703,-1.9691,-1.9688,-1.9683,-1.9676,-1.9667,-1.9663,-1.9659,-1.9647,-1.9633,-1.9626,-1.9622,-1.9616,-1.9616,-1.9628,-1.962,-1.9579,-1.9572,-1.9566,-1.9565,-1.9627,-1.9627,-1.9665,-1.9666,-1.9666]},{"header":{"parameterUnit":"m.s-1","parameterCategory":1,"la1":30.2991,"la2":30.254,"lo1":-89.0895,"lo2":-89.0444,"dx":0.0017,"dy":0.0017,"nx":28,"ny":28,"refTime":"2022-11-03T15:00:00:Z","depth":0,"parameterNumber":3,"parameterNumberName":"V-component_of_WINDS"},"data":[0,0,0,0,0,0,0,0,0,0,0,0,0,0,0,0,0,0,0,0,0,0,0,0,0,0,0,0,0,0,0,0,0,0,0,0,0,0,0,0,0,0,0,0,0,0,0,0,0,0,0,0,0,0,0,0,0,0,1.2047,1.2046,0,1.201,1.2009,1.2009,1.2029,1.203,1.2032,1.2032,1.1987,1.1985,1.1983,0,0,0,0,0,0,0,0,0,0,0,0,0,1.213,1.2128,1.2047,1.2046,1.2046,1.201,1.2009,1.2009,1.2029,1.2031,1.2032,1.2033,1.1988,1.1985,1.1982,0,0,0,0,0,0,0,0,0,0,0,0,0,1.2093,1.2128,1.2047,1.2052,1.2052,1.201,1.2009,1.2009,1.2029,1.2031,1.2032,1.2034,1.1988,1.1985,1.1982,1.193,0,0,1.1972,1.1971,0,0,0,0,0,0,0,0,1.2095,1.209,1.2052,1.2052,1.2052,1.2026,1.2022,1.1982,1.2029,1.2037,1.2033,1.2034,1.1998,1.1994,1.1983,1.1928,1.1926,1.1972,1.197,1.1968,1.1967,0,0,0,0,0,0,0,1.2098,1.2092,1.2032,1.2051,1.2051,1.2054,1.2051,1.2014,1.2009,1.2037,1.2038,1.2034,1.1998,1.1987,1.1983,1.1926,1.1972,1.1969,1.1967,1.1966,1.1826,1.1824,0,0,0,0,0,0,1.2101,1.2094,1.2033,1.2031,1.2078,1.2051,1.2048,1.2032,1.201,1.2008,1.2033,1.2035,1.1991,1.1986,1.1981,1.1918,1.1968,1.1965,1.1963,1.1828,1.1826,1.1824,0,0,0,0,0,0,1.2103,1.2095,1.2035,1.2063,1.2055,1.2048,1.2031,1.2031,1.2019,1.2007,1.2005,1.2022,1.1992,1.1986,1.1943,1.1917,1.1964,1.1961,1.183,1.1827,1.1825,1.1793,0,0,0,0,0,0,1.2105,1.2096,1.2077,1.2062,1.2054,1.1999,1.203,1.2029,1.2014,1.2017,1.1996,1.1994,1.1993,1.1948,1.194,1.1913,1.1958,1.1832,1.1829,1.1825,1.1796,1.179,1.1784,0,0,0,0,0,1.2108,1.2068,1.2076,1.2069,1.2031,1.1998,1.1992,1.1994,1.2012,1.1993,1.1985,1.1995,1.1922,1.1944,1.1935,1.1907,1.1834,1.1829,1.1826,1.1799,1.1791,1.1784,0,0,0,0,0,0,1.2077,1.2066,1.2075,1.203,1.2015,1.2001,1.1976,1.1986,1.1963,1.1966,1.1968,1.1963,1.1918,1.1909,1.1933,1.1856,1.188,1.1874,1.1863,1.1855,1.1849,1.1851,1.1956,0,0,0,0,0,1.2066,1.2042,1.2033,1.1994,1.1986,1.1983,1.1968,1.1972,1.1955,1.1948,1.1937,1.1918,1.1891,1.1873,1.1848,1.1796,1.1791,1.1773,1.1767,1.1762,1.1755,1.1727,1.1718,1.1811,1.1811,1.1811,0,0,1.204,1.2032,1.2016,1.1987,1.1976,1.1949,1.1977,1.1947,1.1927,1.1942,1.1902,1.1894,1.1873,1.1826,1.1805,1.1816,1.1729,1.1757,1.1753,1.1749,1.1722,1.1713,1.1705,1.1808,1.1809,1.1809,0,0,1.1981,1.1973,1.1939,1.1928,1.1912,1.1911,1.1903,1.1888,1.1884,1.1844,1.1856,1.1831,1.1784,1.1769,1.1755,1.1693,1.17,1.1685,1.1651,1.1623,1.1616,1.1609,1.1585,1.1577,1.1679,1.1679,1.1679,0,1.195,1.1913,1.192,1.189,1.1877,1.1893,1.1858,1.1847,1.1822,1.1811,1.1826,1.1769,1.1756,1.1706,1.1691,1.168,1.1669,1.1685,1.1617,1.161,1.1604,1.1581,1.1572,1.1677,1.1677,1.1677,1.1678,0,1.1876,1.185,1.1825,1.1803,1.1787,1.1755,1.1755,1.1738,1.1743,1.174,1.1699,1.1685,1.1657,1.1646,1.1649,1.1595,1.1603,1.1617,1.1642,1.1593,1.1572,1.1563,1.1674,1.1675,1.1675,1.1676,0,0,1.1793,1.1778,1.1768,1.1759,1.1744,1.1722,1.1691,1.1666,1.1651,1.1634,1.1606,1.1568,1.1581,1.1566,1.1568,1.1544,1.1494,1.1561,1.156,1.1547,1.1432,1.142,1.1409,1.15,1.1499,1.1497,1.1433,0,1.1731,1.1678,1.1684,1.1632,1.1607,1.1624,1.1596,1.1583,1.1579,1.1556,1.1551,1.1523,1.1544,1.1535,1.1512,1.1505,1.147,1.151,1.1471,1.147,1.1474,1.1398,1.1385,1.1325,1.1425,1.1423,1.1422,0,1.165,1.1634,1.158,1.157,1.1559,1.1534,1.1513,1.1491,1.1476,1.1475,1.1459,1.1466,1.1433,1.146,1.1413,1.144,1.1425,1.1419,1.1417,1.1411,1.1441,1.1388,1.1306,1.1296,1.1409,1.141,1.1411,0,1.1593,1.1557,1.152,1.1512,1.1499,1.1481,1.1474,1.1461,1.1446,1.1427,1.1417,1.1393,1.1379,1.136,1.136,1.138,1.1311,1.1339,1.1307,1.1307,1.1289,1.129,1.12,1.1284,1.1284,1.1284,1.1284,0,1.1521,1.1487,1.1494,1.1471,1.1434,1.1442,1.1403,1.1398,1.1387,1.1362,1.1375,1.1351,1.1354,1.1329,1.1328,1.1288,1.1282,1.1279,1.1278,1.1276,1.1276,1.1264,1.1267,1.1282,1.1282,1.1283,1.1283,0,1.1449,1.1453,1.1414,1.1406,1.1404,1.1376,1.1368,1.1346,1.1345,1.1313,1.1306,1.1303,1.1275,1.1274,1.124,1.124,1.1191,1.1196,1.1196,1.1196,1.1164,1.1166,1.1062,1.1048,1.1142,1.1141,1.1141,0,1.1402,1.1377,1.1368,1.1353,1.1346,1.1323,1.1309,1.1316,1.13,1.1282,1.1261,1.1235,1.1214,1.1167,1.1161,1.1135,1.1139,1.1104,1.1135,1.1133,1.1136,1.1136,1.1133,1.1097,1.1096,1.1095,1.1094,0,1.1318,1.1322,1.1302,1.1283,1.1266,1.1251,1.1237,1.1224,1.1229,1.1211,1.1184,1.1168,1.1135,1.1108,1.1084,1.1075,1.1084,1.1086,1.1076,1.1072,1.1073,1.107,1.1177,1.1087,1.1088,1.1088,1.1089,1.1089,1.1255,1.1234,1.1224,1.1202,1.1193,1.118,1.1159,1.1156,1.1135,1.111,1.1116,1.1085,1.1071,1.104,1.1029,1.1003,1.1015,1.1002,1.0998,1.0994,1.099,1.108,1.0999,1.0999,1.1,1.1,1.1,0,1.117,1.1165,1.1145,1.1127,1.1109,1.1124,1.111,1.1093,1.1066,1.1054,1.1034,1.1002,1.0977,1.0969,1.0944,1.0925,1.0929,1.0918,1.0918,1.0915,1.0982,1.0992,1.0915,1.0915,1.0915,1.0915,1.0915,1.0915,1.1123,1.1087,1.109,1.1049,1.1045,1.1017,1.1007,1.0995,1.0985,1.095,1.093,1.0927,1.0915,1.089,1.0867,1.0865,1.0854,1.0841,1.084,1.0902,1.0911,1.0919,1.0928,1.0839,1.0839,1.0775,1.0775,1.0774]}]]